Location: Emblem
(62.4273°N, 6.4710°E)
Time: 03:12:41
(UTC+02:00)

S-56A Canister/Altair - Visible Passes

Search period start: 14 April 2024 00:00
Search period end: 24 April 2024 00:00
Orbit: 638 x 2489 km, 38.9° (Epoch: 13 April)

Date Brightness Start Highest point End Pass type
(mag) Time Alt. Az. Time Alt. Az. Time Alt. Az.
14 Apr 10.6 00:53:15 10° SW 00:59:00 16° SSW 00:59:00 16° SSW visible
14 Apr 10.4 22:17:35 10° SSW 22:23:11 18° S 22:29:36 11° SE visible
15 Apr 10.6 00:19:56 10° SW 00:25:41 16° SSW 00:26:56 16° S visible
15 Apr 10.4 21:44:48 10° SSW 21:49:45 16° S 21:55:44 10° SE visible
15 Apr 10.6 23:46:44 10° SW 23:52:09 16° SSW 23:54:50 15° S visible
16 Apr 10.5 23:13:38 10° SW 23:18:39 15° S 23:22:46 13° SSE visible
17 Apr 10.5 22:40:38 10° SW 22:45:12 15° S 22:50:34 10° SSE visible
18 Apr 10.5 22:07:45 10° SSW 22:11:46 14° S 22:16:29 10° SSE visible
